Temperature
3 4 4 4 5 4 4 4 4 5 4 6 6 5 7 7 8 7 8 8 7 7 7 7 7 6 6 5 5 4 4 3 3 3 2 2 2 2 1 1 1 1 1 1
3 4 3 3 4 4 4 4 4 5 5 7 7 6 6 7 7 7 8 8 8 7 7 7 6 6 6 5 5 4 4 3 3 3 2 2 2 1 1 1 1 1 1 0
3 2 3 4 4 4 4 3 4 4 5 5 5 5 6 7 7 7 8 8 8 7 7 7 6 6 6 5 5 4 4 3 3 2 2 2 1 1 1 1 0 0 0 -0
2 3 4 6 6 4 4 4 4 4 5 4 5 6 7 8 8 8 8 8 7 7 7 7 6 6 5 5 4 4 4 3 3 2 2 2 1 1 1 0 0 -0 -0 -1
2 2 3 5 5 4 4 5 5 4 5 5 6 5 7 8 8 8 8 7 7 7 6 6 6 6 5 5 4 4 3 3 3 2 2 1 1 1 0 -0 -0 -1 -1 -1
2 3 4 7 6 6 5 6 6 5 5 5 5 4 6 8 8 7 7 7 7 6 6 6 6 5 5 4 4 4 3 3 2 2 1 1 1 0 -0 -0 -1 -1 -1 -1
2 3 3 4 5 6 6 7 8 7 7 6 5 6 7 7 7 7 7 6 6 6 6 5 5 5 4 4 4 3 3 2 2 2 1 1 0 0 -0 -1 -1 -1 -1 -2
2 3 4 5 4 4 6 7 7 7 7 6 6 6 7 7 6 6 6 6 6 5 5 5 5 4 4 4 3 3 2 2 2 1 1 0 0 -0 -1 -1 -1 -1 -2 -2
3 5 6 6 6 7 7 6 7 7 6 6 6 6 6 6 6 6 6 6 5 5 5 4 4 4 4 3 3 2 2 2 1 1 0 0 -0 -1 -1 -1 -2 -2 -2 -2
1 2 4 6 6 7 7 6 6 6 6 5 5 5 5 5 5 5 5 5 5 5 4 4 4 4 3 3 2 2 2 1 1 0 0 -0 -1 -1 -1 -2 -2 -2 -3 -3
1 2 4 6 6 6 6 6 6 5 5 5 4 4 4 5 5 5 5 5 4 4 4 4 4 3 3 2 2 2 1 1 0 0 -0 -1 -1 -2 -2 -2 -3 -3 -3 -4
3 5 4 5 6 5 5 5 5 4 4 4 4 4 4 4 4 4 4 4 4 4 4 3 3 3 2 2 2 1 1 1 0 -0 -1 -1 -2 -2 -2 -3 -3 -4 -4 -4
5 5 4 4 4 4 4 4 4 4 4 4 4 4 4 4 4 4 4 4 3 3 3 3 3 3 2 2 1 1 1 0 -0 -1 -1 -2 -2 -2 -3 -3 -3 -4 -4 -4
4 4 3 4 4 4 4 4 4 4 4 4 4 3 3 3 3 3 3 3 3 3 3 3 2 2 2 1 1 1 0 -0 -1 -1 -2 -2 -3 -3 -3 -3 -4 -4 -4 -5
3 3 3 3 3 3 3 3 3 4 4 4 3 3 3 3 3 3 3 3 3 3 3 2 2 2 1 1 0 0 -0 -0 -1 -2 -2 -3 -3 -3 -4 -4 -4 -4 -4 -5
3 3 3 3 3 3 3 3 3 3 3 3 3 3 3 3 3 3 3 3 2 2 2 2 2 2 1 0 -0 -0 -1 -1 -2 -2 -2 -3 -3 -4 -4 -4 -5 -5 -5 -5
2 2 3 3 3 3 3 3 3 3 3 3 3 3 3 3 3 3 3 2 2 2 2 2 1 1 1 0 -0 -1 -1 -1 -2 -3 -3 -3 -4 -4 -4 -5 -5 -5 -6 -6
2 2 2 2 2 2 3 3 3 3 3 2 2 2 2 2 2 2 2 2 2 2 1 1 1 0 0 -0 -1 -1 -1 -2 -2 -3 -3 -4 -4 -4 -5 -5 -5 -6 -6 -6
3 3 3 2 2 2 3 3 3 3 2 2 2 2 2 2 2 2 2 1 1 1 1 1 0 -0 -0 -1 -1 -1 -2 -2 -3 -3 -4 -4 -4 -5 -5 -5 -6 -6 -6 -7
2 2 2 3 3 2 2 2 2 2 2 2 2 2 2 2 2 1 1 1 1 1 1 0 -0 -0 -1 -1 -2 -2 -2 -3 -3 -3 -4 -4 -5 -5 -5 -6 -6 -6 -7 -7
2 2 2 2 2 2 2 2 2 2 2 2 2 1 1 1 1 1 1 1 1 1 0 -0 -0 -1 -1 -2 -2 -2 -3 -3 -4 -4 -4 -5 -5 -5 -6 -6 -6 -7 -7 -7
2 2 2 2 2 2 2 2 2 1 1 1 1 1 1 1 1 1 1 0 1 0 -0 -0 -1 -1 -2 -2 -2 -3 -3 -4 -4 -4 -5 -5 -5 -6 -6 -6 -7 -7 -7 -7
1 1 1 1 1 1 1 1 1 1 1 1 1 1 1 0 0 0 0 0 -0 -0 -1 -1 -1 -2 -2 -3 -3 -3 -4 -4 -4 -4 -5 -5 -6 -6 -6 -7 -7 -7 -7 -8
1 1 1 1 1 1 1 1 1 1 1 1 1 1 0 0 0 0 -0 -0 -1 -1 -1 -1 -2 -2 -3 -3 -3 -3 -4 -4 -5 -5 -5 -5 -6 -6 -6 -7 -7 -7 -8 -8
0 0 0 0 0 0 1 1 1 1 1 1 1 0 0 0 -0 -0 -0 -1 -1 -1 -1 -2 -2 -2 -3 -3 -3 -4 -4 -5 -5 -5 -5 -6 -6 -6 -7 -7 -7 -7 -8 -8
-0 -0 -0 -0 -0 0 0 0 -0 0 0 0 0 0 0 -0 -0 -0 -1 -1 -1 -2 -2 -2 -2 -3 -3 -3 -4 -4 -4 -5 -5 -5 -6 -6 -6 -6 -7 -7 -7 -7 -8 -8
-1 -1 -1 -0 -0 0 -0 -0 -0 -0 -0 -1 -1 -0 -0 -1 -1 -1 -1 -1 -2 -2 -2 -2 -3 -3 -3 -4 -4 -4 -5 -5 -5 -6 -6 -6 -6 -7 -7 -7 -7 -8 -8 -8
Wind_Speed
8 8 7 9 11 10 12 11 10 10 10 17 11 10 10 10 9 8 8 8 8 8 7 6 6 6 6 6 5 4 4 4 4 4 3 3 2 3 3 3 3 3 3 4
5 6 7 11 15 15 15 13 16 16 19 17 10 7 8 9 9 10 10 9 9 8 7 7 7 7 6 6 5 4 5 5 4 3 3 3 3 2 2 2 3 3 3 4
5 6 7 10 11 12 8 8 10 15 14 9 8 9 9 9 9 10 11 9 9 8 8 8 7 7 7 7 5 5 5 5 4 3 3 3 3 2 2 2 2 3 3 3
4 7 7 7 1 7 8 9 12 11 11 9 10 9 9 9 10 10 9 8 8 7 7 6 6 5 5 5 5 5 5 5 4 4 4 3 2 3 3 2 2 2 3 4
2 5 10 10 4 5 6 7 9 12 13 10 7 6 7 6 6 8 8 8 7 7 6 5 5 5 5 5 5 5 6 6 5 4 4 3 3 3 3 2 2 3 3 3
3 4 7 6 1 2 2 6 5 7 7 5 1 4 7 5 5 7 7 5 5 4 3 4 5 5 5 5 6 7 7 6 5 5 4 4 4 3 2 2 3 3 3 3
7 7 10 8 3 3 2 5 2 3 5 4 5 7 7 7 7 7 6 6 5 4 5 5 4 5 6 6 8 7 5 4 4 4 4 4 3 2 2 2 2 2 4 4
7 8 10 5 6 7 8 4 4 5 6 7 8 9 9 8 8 7 6 6 5 5 6 5 5 6 7 8 7 4 4 4 4 4 4 3 3 2 2 2 2 3 3 4
11 12 6 4 8 6 3 6 7 7 8 8 9 10 10 9 8 8 7 7 5 6 6 5 6 7 9 7 5 5 5 5 4 4 3 3 3 3 2 2 2 2 3 3
8 12 12 11 10 10 10 10 10 10 9 8 11 12 11 10 9 8 7 7 5 5 6 7 7 8 8 6 5 6 6 5 4 4 4 3 3 3 3 3 3 3 3 4
9 10 10 8 7 8 8 8 9 9 9 10 11 12 11 10 9 8 7 6 5 7 8 9 7 7 7 6 6 6 6 5 5 4 4 3 3 4 4 4 5 4 4 4
11 9 7 10 8 8 10 11 11 11 11 10 10 11 11 10 8 7 7 6 6 7 8 8 7 7 6 6 7 7 6 5 4 4 4 3 3 3 5 5 7 7 7 6
12 10 10 13 12 10 10 12 12 11 12 12 10 9 9 8 7 7 7 7 8 9 9 7 7 7 7 7 7 8 7 6 5 4 4 4 4 3 3 3 5 6 7 7
10 8 11 11 11 11 11 11 10 10 9 9 8 8 7 7 7 7 8 8 8 7 7 7 7 8 7 7 8 8 7 7 6 5 5 4 4 4 3 3 3 3 4 7
10 9 11 12 12 11 9 8 9 10 9 8 7 7 7 8 9 9 8 7 6 7 7 7 8 8 6 7 8 8 7 5 5 5 5 4 4 4 4 4 4 4 3 4
9 9 9 10 11 11 9 8 9 10 9 8 8 8 8 8 9 9 7 5 6 8 8 7 8 7 6 7 7 6 6 9 7 5 5 4 4 4 4 4 4 4 4 4
7 8 8 9 10 10 9 9 9 10 9 9 9 9 8 7 8 8 8 6 7 8 8 8 8 5 6 7 7 6 5 6 9 6 5 5 5 5 4 4 4 4 4 5
8 9 9 9 10 11 12 10 9 9 9 9 9 8 8 8 9 9 8 6 5 6 7 7 6 6 6 7 7 5 5 5 5 5 5 5 5 5 4 5 5 5 4 5
6 8 9 9 9 9 9 10 10 9 9 8 8 9 9 9 9 8 6 5 6 8 7 6 8 7 6 8 8 5 6 6 5 5 5 6 6 4 5 5 5 5 5 4
6 7 8 9 8 7 9 10 9 9 9 8 8 8 9 9 8 7 6 8 8 7 5 5 6 6 6 7 9 5 6 6 6 5 5 5 5 5 5 5 5 5 5 5
8 8 9 9 9 9 9 9 8 10 10 8 8 9 10 10 7 6 6 8 7 6 6 8 6 5 6 7 9 6 6 6 6 6 6 5 5 5 5 5 5 5 5 5
8 9 10 9 9 11 9 8 8 10 10 9 9 8 9 9 8 7 8 8 7 7 5 5 5 8 9 9 6 6 6 6 6 5 6 6 5 6 5 5 5 5 5 5
9 10 10 10 10 10 10 9 9 9 10 10 10 9 9 9 6 6 8 6 5 8 6 5 8 11 12 7 6 6 7 7 6 6 6 6 6 6 5 6 5 5 5 5
11 11 11 10 8 9 12 12 10 8 9 10 10 10 9 7 7 7 7 8 9 9 6 8 12 12 11 5 6 6 6 6 6 6 6 5 5 5 5 5 5 5 5 6
11 11 11 10 10 10 11 11 9 9 9 8 9 9 8 7 7 7 5 6 9 9 6 8 11 12 7 5 6 7 6 6 6 6 6 6 6 6 5 5 5 5 5 5
11 11 11 11 10 10 9 8 8 8 8 8 8 7 6 6 6 6 6 6 8 8 6 5 5 7 5 6 7 7 6 6 6 6 6 6 6 6 5 6 6 5 5 5
10 10 9 9 10 9 8 8 9 9 8 8 9 8 6 6 5 6 6 6 5 5 5 5 5 5 5 6 6 6 6 5 5 5 5 6 5 5 6 6 5 5 5 5
Wind_Direction
256 259 249 245 241 215 212 213 226 248 250 267 266 264 268 269 270 269 266 259 249 245 245 242 236 230 225 226 216 205 204 218 235 245 251 261 278 294 309 319 324 322 325 328
282 268 262 264 251 233 233 233 241 260 272 271 272 262 263 267 264 264 264 258 253 250 247 241 233 228 224 224 214 198 207 223 232 235 244 255 266 277 295 310 318 331 332 326
282 309 315 275 244 209 207 211 209 237 249 273 282 270 260 262 263 262 262 260 254 248 244 240 231 219 219 219 204 198 211 220 223 225 238 251 259 271 286 298 314 323 323 323
297 342 271 250 211 186 210 238 219 235 255 265 265 273 268 258 254 260 258 255 253 248 245 240 226 215 209 197 194 202 212 218 220 219 233 244 245 259 271 278 288 295 300 304
270 293 282 293 261 187 203 272 228 229 252 265 285 310 294 262 237 244 250 252 250 244 242 234 223 205 189 195 196 203 214 220 219 214 223 232 243 256 262 268 277 281 289 296
204 254 260 261 219 167 128 285 255 207 241 264 330 316 287 286 281 273 269 263 258 255 240 229 220 184 187 202 203 217 220 219 213 208 214 226 234 242 246 254 266 285 294 293
220 242 267 261 231 134 198 262 295 217 246 247 232 246 274 289 283 272 271 268 258 244 235 231 206 182 201 209 221 224 212 206 206 207 213 219 220 222 235 252 278 289 292 296
196 219 254 229 154 190 226 280 299 281 266 259 262 273 282 279 273 272 273 268 254 243 245 235 200 193 212 224 227 207 196 200 206 207 211 206 201 219 223 226 257 280 288 296
203 221 248 203 211 240 266 285 285 279 277 271 274 278 282 278 271 266 261 259 249 239 247 243 214 203 219 228 203 190 194 205 209 206 205 199 198 210 220 221 236 265 276 289
252 261 264 266 263 269 265 263 272 273 274 271 273 278 279 278 273 267 264 258 249 240 244 248 228 219 223 215 189 186 200 208 206 204 210 208 211 209 212 222 234 253 270 282
255 271 289 280 266 273 279 279 279 279 273 269 272 276 274 275 271 266 264 258 241 236 243 247 236 228 222 202 185 193 202 205 205 205 204 210 220 220 222 223 222 237 246 254
252 254 258 280 286 290 289 288 290 292 291 281 268 271 273 271 266 262 261 256 249 245 246 247 233 230 222 201 189 191 204 208 206 202 202 206 221 252 253 249 259 261 263 267
256 274 273 280 286 285 284 287 290 286 282 285 281 270 269 272 269 262 260 254 247 246 246 242 232 230 220 200 193 196 205 207 204 201 198 205 213 225 254 271 267 269 272 278
259 272 280 280 285 292 290 290 290 287 280 274 275 276 272 272 271 264 260 255 250 250 248 238 231 233 217 197 196 202 204 209 205 201 198 203 211 219 226 242 268 275 276 286
259 247 259 279 288 291 293 294 296 295 294 291 283 278 275 273 272 269 267 262 256 251 247 237 234 236 207 194 197 200 201 203 201 196 198 203 207 212 221 233 247 264 275 287
282 284 276 277 284 291 296 295 291 291 292 290 291 286 278 272 273 274 270 254 245 250 248 238 239 232 198 193 197 200 205 208 200 194 196 202 208 213 220 231 244 255 263 271
276 286 287 292 296 298 294 287 280 282 286 285 284 286 286 283 282 277 270 255 243 248 246 237 237 221 197 194 195 199 198 203 203 199 202 206 210 215 220 228 240 252 259 268
244 253 263 270 280 289 294 294 288 284 279 276 282 283 279 273 272 274 273 270 263 263 253 237 225 208 199 196 195 194 191 195 195 199 203 207 213 215 221 230 240 251 263 273
266 266 271 270 268 270 275 281 284 280 279 280 277 275 271 267 266 267 267 260 255 262 258 226 215 207 204 203 194 188 188 192 197 201 204 217 222 217 221 230 240 249 257 263
284 279 277 277 274 265 271 278 280 282 280 275 275 278 280 278 271 264 258 254 248 246 241 221 210 207 206 203 196 188 191 196 201 203 205 209 216 220 223 231 239 247 251 255
291 290 289 287 287 280 272 273 277 282 284 277 269 272 276 279 272 258 256 269 264 233 225 220 211 208 202 203 200 193 195 201 204 205 207 212 217 222 226 230 237 245 250 255
283 284 285 286 285 287 284 276 270 274 279 277 270 267 270 274 270 262 248 250 259 243 228 218 213 213 207 204 198 197 200 203 205 205 208 210 214 221 227 229 234 242 246 251
276 275 276 277 278 281 285 280 269 267 269 270 269 267 264 264 258 257 271 255 237 238 230 224 223 220 216 207 198 201 203 206 208 209 211 212 213 218 224 229 233 238 243 249
274 275 274 274 275 278 281 280 273 265 262 266 264 259 256 264 266 249 247 255 250 246 236 230 228 226 220 205 199 203 207 210 211 211 211 213 213 216 221 226 232 237 241 247
270 272 272 272 273 273 271 276 280 276 270 270 267 261 250 239 245 256 247 245 248 250 244 236 231 228 216 200 201 206 209 213 213 209 209 211 213 215 220 224 229 234 240 245
266 269 269 264 263 268 270 270 271 273 273 275 276 267 256 246 240 244 246 243 241 244 240 233 226 221 209 204 205 206 208 217 224 217 209 210 213 216 220 224 230 234 239 245
266 267 270 272 268 259 255 255 259 264 262 261 271 271 259 252 245 242 242 242 240 235 229 223 216 210 208 206 205 204 205 208 209 210 208 209 211 216 220 224 229 234 238 244
Height
1529 1526 1525 1522 1519 1520 1521 1518 1517 1505 1502 1487 1485 1485 1483 1481 1480 1478 1477 1476 1475 1474 1474 1473 1473 1473 1473 1472 1472 1472 1471 1471 1469 1468 1467 1465 1463 1462 1460 1458 1456 1454 1452 1450
1527 1522 1522 1518 1510 1512 1511 1509 1505 1500 1492 1480 1480 1480 1479 1477 1476 1474 1472 1471 1471 1470 1469 1469 1468 1468 1468 1468 1468 1468 1468 1467 1466 1465 1463 1462 1460 1459 1457 1455 1453 1452 1449 1448
1529 1524 1519 1510 1497 1499 1500 1497 1497 1496 1486 1478 1479 1477 1475 1473 1471 1469 1468 1467 1467 1466 1465 1465 1464 1464 1463 1464 1464 1464 1463 1463 1462 1461 1460 1458 1457 1455 1453 1452 1450 1448 1446 1445
1531 1527 1517 1495 1489 1490 1492 1489 1487 1483 1479 1477 1475 1473 1470 1469 1467 1465 1465 1464 1463 1462 1461 1460 1460 1459 1459 1459 1459 1459 1459 1459 1458 1457 1456 1455 1453 1452 1450 1448 1446 1445 1443 1442
1532 1530 1514 1493 1487 1487 1489 1484 1477 1478 1476 1474 1472 1470 1467 1465 1464 1463 1462 1460 1459 1458 1457 1456 1456 1455 1455 1454 1454 1454 1454 1454 1454 1453 1452 1451 1449 1448 1446 1445 1443 1441 1440 1438
1529 1526 1512 1487 1484 1483 1486 1482 1472 1472 1472 1471 1471 1472 1466 1463 1461 1460 1458 1457 1455 1454 1453 1452 1452 1451 1450 1450 1450 1450 1450 1450 1449 1448 1447 1446 1445 1444 1443 1441 1440 1438 1437 1435
1524 1521 1504 1485 1482 1483 1488 1478 1471 1470 1469 1469 1468 1467 1463 1460 1458 1456 1454 1453 1451 1450 1449 1448 1447 1446 1445 1445 1445 1445 1445 1445 1444 1444 1443 1442 1441 1440 1439 1438 1436 1435 1433 1432
1517 1516 1500 1478 1480 1481 1476 1471 1469 1468 1467 1465 1463 1460 1458 1455 1453 1451 1450 1448 1447 1445 1444 1443 1443 1441 1440 1440 1441 1441 1440 1440 1439 1439 1439 1438 1437 1436 1435 1434 1433 1431 1430 1428
1500 1490 1477 1474 1473 1471 1471 1469 1467 1465 1463 1461 1458 1455 1453 1450 1448 1446 1445 1443 1442 1440 1439 1438 1437 1436 1435 1436 1436 1435 1435 1435 1435 1434 1434 1433 1433 1432 1431 1430 1428 1427 1426 1424
1492 1479 1473 1471 1470 1469 1468 1465 1463 1461 1458 1456 1453 1449 1447 1445 1442 1441 1439 1438 1437 1435 1434 1433 1432 1431 1431 1431 1431 1430 1430 1430 1430 1429 1429 1429 1428 1427 1427 1425 1424 1423 1422 1420
1484 1474 1469 1465 1465 1464 1462 1460 1458 1455 1453 1450 1447 1443 1441 1439 1437 1435 1434 1432 1431 1429 1428 1427 1427 1426 1426 1426 1426 1425 1425 1425 1425 1424 1424 1424 1423 1423 1422 1421 1420 1419 1418 1417
1473 1467 1467 1462 1461 1460 1457 1454 1452 1449 1445 1443 1441 1438 1436 1433 1431 1430 1428 1427 1425 1424 1422 1421 1421 1420 1420 1420 1420 1420 1420 1420 1419 1419 1419 1419 1419 1418 1417 1417 1416 1415 1414 1413
1464 1462 1461 1458 1456 1454 1452 1448 1445 1443 1439 1436 1434 1432 1430 1427 1426 1424 1422 1421 1419 1418 1417 1416 1415 1414 1414 1415 1414 1414 1414 1414 1415 1414 1414 1414 1414 1413 1413 1413 1412 1411 1409 1408
1460 1459 1455 1452 1450 1448 1445 1442 1439 1436 1433 1431 1428 1426 1424 1422 1420 1418 1417 1416 1414 1413 1411 1410 1409 1409 1409 1409 1409 1409 1409 1409 1409 1409 1409 1409 1409 1408 1408 1407 1407 1406 1405 1404
1453 1453 1450 1447 1444 1441 1439 1436 1433 1430 1428 1425 1423 1421 1419 1417 1415 1413 1412 1410 1408 1407 1406 1405 1404 1403 1403 1403 1403 1403 1403 1403 1404 1404 1404 1404 1404 1403 1403 1402 1401 1401 1400 1399
1448 1446 1444 1441 1438 1436 1433 1431 1428 1425 1423 1421 1418 1416 1414 1412 1410 1408 1406 1405 1403 1401 1400 1399 1398 1398 1398 1398 1397 1397 1397 1398 1398 1398 1398 1398 1398 1398 1398 1397 1397 1396 1395 1394
1443 1440 1438 1436 1434 1431 1429 1427 1424 1421 1418 1416 1414 1411 1409 1407 1404 1402 1401 1399 1397 1396 1395 1394 1393 1393 1392 1392 1392 1392 1392 1392 1393 1393 1393 1393 1393 1393 1393 1392 1392 1391 1390 1389
1438 1437 1435 1433 1430 1427 1425 1423 1420 1417 1415 1412 1409 1406 1404 1401 1399 1397 1395 1393 1392 1390 1390 1389 1388 1388 1387 1387 1387 1387 1387 1387 1387 1387 1388 1388 1388 1388 1388 1387 1387 1386 1385 1384
1434 1433 1431 1429 1427 1424 1421 1419 1416 1413 1410 1407 1404 1401 1399 1396 1394 1392 1390 1388 1386 1384 1384 1384 1383 1382 1382 1382 1382 1382 1382 1382 1382 1382 1383 1383 1383 1382 1382 1382 1381 1381 1380 1379
1431 1429 1427 1425 1422 1420 1417 1414 1411 1408 1405 1402 1399 1396 1393 1391 1389 1386 1384 1382 1380 1380 1379 1378 1377 1377 1377 1377 1377 1376 1376 1377 1377 1377 1377 1378 1378 1377 1377 1377 1376 1376 1375 1374
1427 1425 1422 1420 1417 1415 1412 1409 1406 1403 1400 1397 1394 1391 1388 1385 1383 1381 1378 1376 1375 1375 1373 1372 1372 1372 1372 1371 1371 1371 1371 1371 1371 1372 1372 1372 1372 1372 1372 1372 1371 1371 1370 1369
1422 1419 1417 1414 1411 1408 1406 1404 1401 1397 1394 1391 1388 1385 1382 1380 1377 1375 1373 1371 1370 1369 1367 1366 1366 1366 1366 1366 1365 1365 1365 1366 1366 1366 1367 1367 1367 1367 1367 1367 1366 1366 1365 1364
1416 1413 1410 1408 1405 1401 1399 1396 1394 1391 1388 1385 1382 1379 1377 1374 1372 1369 1367 1366 1364 1363 1362 1361 1361 1360 1360 1360 1359 1360 1360 1360 1361 1361 1361 1362 1362 1362 1362 1361 1361 1361 1360 1359
1409 1406 1403 1400 1398 1394 1391 1388 1386 1383 1381 1378 1376 1373 1371 1368 1365 1364 1362 1360 1359 1357 1356 1356 1355 1355 1354 1354 1354 1354 1354 1355 1355 1356 1356 1356 1357 1357 1357 1356 1356 1356 1355 1354
1401 1398 1395 1392 1389 1386 1383 1380 1378 1375 1373 1371 1369 1367 1364 1362 1360 1358 1356 1354 1353 1352 1350 1350 1349 1349 1348 1348 1348 1348 1349 1349 1350 1350 1351 1351 1351 1351 1352 1351 1351 1351 1350 1350
1392 1389 1386 1384 1381 1378 1376 1373 1370 1368 1365 1363 1360 1359 1357 1355 1353 1351 1349 1348 1347 1345 1345 1344 1343 1343 1342 1342 1342 1342 1343 1344 1344 1345 1345 1346 1346 1346 1347 1347 1347 1346 1346 1345
1382 1379 1377 1374 1371 1370 1367 1365 1362 1360 1358 1355 1353 1351 1350 1348 1346 1345 1343 1341 1340 1339 1338 1338 1337 1337 1337 1337 1337 1337 1338 1338 1339 1340 1340 1341 1341 1342 1342 1342 1342 1342 1341 1341